This demonstration page uses our WeatherBlox Daily Observations layout. Learn more.

Left ArrowRight Arrow

Hourly Observations for March 5, 2017

Temp ( °F °C ) Dew Point ( °F °C ) Humidity (%) Winds ( mph kmh ) Pressure ( in mb ) Visibility ( mi km ) Precip ( " mm )
12:53 am 00:53 Clear 30 -1.1 23 -5 75 75 E 6 9 30.53 1034 10 16 N/A
1:53 am 01:53 Clear 27 -2.8 23 -5 85 85 E 3 6 30.53 1034 10 16 N/A
2:53 am 02:53 Clear 27 -2.8 24 -4.4 89 89 E 3 6 30.52 1033 10 16 N/A
3:53 am 03:53 Clear 26 -3.3 23 -5 88 88 E 3 6 30.50 1033 10 16 N/A
4:53 am 04:53 Clear 26 -3.3 23 -5 88 88 E 3 6 30.49 1033 10 16 N/A
5:53 am 05:53 Clear 26 -3.3 22 -5.6 84 84 N N/A 30.50 1033 10 16 N/A
6:53 am 06:53 Clear 25 -3.9 22 -5.6 88 88 N N/A 30.49 1032 10 16 N/A
7:53 am 07:53 Sunny 30 -1.1 24 -4.4 79 79 E 5 7 30.49 1032 10 16 N/A
8:53 am 08:53 Sunny 36 2.2 23 -5 59 59 ESE 7 11 30.49 1032 10 16 N/A
9:53 am 09:53 Sunny 41 5 23 -5 49 49 VRB 5 7 30.47 1032 10 16 N/A
10:53 am 10:53 Sunny 46 7.8 25 -3.9 44 44 SE 6 9 30.45 1031 10 16 N/A
11:53 am 11:53 Sunny 52 11.1 28 -2.2 40 40 S 5 7 30.42 1030 10 16 N/A
12:53 pm 12:53 Sunny 57 13.9 30 -1.1 36 36 VRB 3 6 30.38 1029 10 16 N/A
1:53 pm 13:53 Mostly Cloudy 62 16.7 31 -0.6 31 31 SW 8 13 30.34 1027 10 16 N/A
2:53 pm 14:53 Partly Cloudy 64 17.8 30 -1.1 28 28 SSW 7 11 30.30 1026 10 16 N/A
3:53 pm 15:53 Cloudy 65 18.3 28 -2.2 25 25 SW 7 11 30.28 1025 10 16 N/A
4:53 pm 16:53 Mostly Sunny 67 19.4 28 -2.2 23 23 SSW 8 13 30.26 1025 10 16 N/A
5:53 pm 17:53 Partly Cloudy 64 17.8 29 -1.7 27 27 SSW 7 11 30.25 1025 10 16 N/A
6:53 pm 18:53 Cloudy 60 15.6 30 -1.1 32 32 VRB 3 6 30.26 1025 10 16 N/A
7:53 pm 19:53 Mostly Cloudy 58 14.4 30 -1.1 35 35 S 3 6 30.27 1025 10 16 N/A
8:53 pm 20:53 Partly Cloudy 58 14.4 30 -1.1 35 35 SSW 5 7 30.27 1025 10 16 N/A
9:53 pm 21:53 Cloudy 58 14.4 30 -1.1 35 35 S 6 9 30.26 1025 10 16 N/A
10:53 pm 22:53 Cloudy 58 14.4 30 -1.1 35 35 S 7 11 30.27 1025 10 16 N/A
11:53 pm 23:53 Cloudy 58 14.4 33 0.6 39 39 SW 8 13 30.26 1025 10 16 N/A

Powered by AerisWeather